STARLINK-34762

Last updated on Tue Sep 16 2025 00:02:08 GMT+0000 (Coordinated Universal Time)

1 65473U 25195R 25257.39107403 .04505988 00000+0 17975-1 0 9993 2 65473 53.1549 3.3386 0015376 327.0202 32.9861 15.82373993 2893
UTC large
Height (km)
Speed (km/s)
/
Latitude / Longitude
Inclination (degrees)
Orbital Period (minutes)
Azimuth
Elevation
Range (km)
Doppler Factor

Next 0 passes for location: London (51.5072 / 0.1276)

Sorry there are no passes over London.